| time (UTC) | temp C | wind direction | speed KPH | gust KPH | rain 1hr cm | rain 24hr cm | rain mn cm | humidity % | barometer mb |
| 20260504081557 | 14 | 182 | 3.2 | 11.3 | 0.00 | 0.00 | 0.00 | 82 | 1007.0 |
| 20260504080214 | 14 | 202 | 0.0 | 8.0 | 0.00 | 0.00 | 0.00 | 83 | 1006.8 |
| 20260504044554 | 16 | 0 | 0.0 | 3.2 | 0.00 | 0.00 | 0.00 | 70 | 1007.8 |
| 20260504043112 | 16 | 0 | 1.6 | 3.2 | 0.00 | 0.00 | 0.00 | 70 | 1008.2 |
| 20260504041551 | 16 | 0 | 0.0 | 3.2 | 0.00 | 0.00 | 0.00 | 70 | 1008.5 |
| 20260504040054 | 16 | 0 | 0.0 | 3.2 | 0.00 | 0.00 | 0.00 | 71 | 1008.6 |
| 20260504034554 | 16 | 190 | 0.0 | 3.2 | 0.00 | 0.00 | 0.00 | 70 | 1008.9 |
| 20260504033102 | 16 | 190 | 0.0 | 3.2 | 0.00 | 0.00 | 0.00 | 71 | 1008.9 |
| 20260504031556 | 17 | 0 | 0.0 | 1.6 | 0.00 | 0.00 | 0.00 | 70 | 1009.3 |
| 20260504030109 | 17 | 190 | 1.6 | 4.8 | 0.00 | 0.00 | 0.00 | 68 | 1009.1 |
| 20260504024553 | 17 | 0 | 0.0 | 3.2 | 0.00 | 0.00 | 0.00 | 69 | 1009.0 |
| 20260504023057 | 17 | 0 | 1.6 | 4.8 | 0.00 | 0.00 | 0.00 | 69 | 1008.9 |
| 20260504021555 | 17 | 191 | 0.0 | 1.6 | 0.00 | 0.00 | 0.00 | 71 | 1009.0 |
| 20260504020058 | 17 | 191 | 1.6 | 4.8 | 0.00 | 0.00 | 0.00 | 68 | 1009.0 |
| 20260504014554 | 18 | 0 | 0.0 | 1.6 | 0.00 | 0.00 | 0.00 | 67 | 1008.8 |
| 20260504013055 | 18 | 0 | 0.0 | 1.6 | 0.00 | 0.00 | 0.00 | 65 | 1008.5 |
| 20260504011553 | 18 | 360 | 1.6 | 4.8 | 0.00 | 0.00 | 0.00 | 62 | 1008.4 |
| 20260504010059 | 19 | 0 | 0.0 | 1.6 | 0.00 | 0.00 | 0.00 | 59 | 1008.5 |
| 20260504004555 | 20 | 0 | 0.0 | 3.2 | 0.00 | 0.00 | 0.00 | 57 | 1008.2 |
| 20260504003053 | 20 | 0 | 0.0 | 3.2 | 0.00 | 0.00 | 0.00 | 54 | 1008.4 |
| 20260504001558 | 21 | 0 | 0.0 | 1.6 | 0.00 | 0.00 | 0.00 | 54 | 1008.1 |
| 20260504000101 | 21 | 0 | 0.0 | 3.2 | 0.00 | 0.00 | 0.00 | 48 | 1008.5 |
| 20260503234556 | 22 | 360 | 1.6 | 14.5 | 0.00 | 0.00 | 0.00 | 47 | 1008.5 |
| 20260503233109 | 22 | 360 | 1.6 | 8.0 | 0.00 | 0.00 | 0.00 | 45 | 1008.6 |
| 20260503231555 | 22 | 360 | 1.6 | 14.5 | 0.00 | 0.00 | 0.00 | 44 | 1008.6 |
| 20260503230110 | 22 | 204 | 4.8 | 14.5 | 0.00 | 0.00 | 0.00 | 44 | 1008.3 |
| 20260503224552 | 22 | 290 | 6.4 | 17.7 | 0.00 | 0.00 | 0.00 | 43 | 1008.5 |
| 20260503223111 | 22 | 201 | 6.4 | 24.1 | 0.00 | 0.00 | 0.00 | 42 | 1008.6 |
| 20260503221556 | 23 | 207 | 6.4 | 22.5 | 0.00 | 0.00 | 0.00 | 41 | 1008.6 |
| 20260503220057 | 23 | 209 | 8.0 | 24.1 | 0.00 | 0.00 | 0.00 | 40 | 1008.8 |
| 20260503214558 | 23 | 217 | 12.9 | 27.4 | 0.00 | 0.00 | 0.00 | 40 | 1009.0 |
| 20260503213052 | 22 | 246 | 6.4 | 29.0 | 0.00 | 0.00 | 0.00 | 41 | 1009.0 |
| 20260503211551 | 22 | 214 | 12.9 | 27.4 | 0.00 | 0.00 | 0.00 | 40 | 1009.6 |
| 20260503210052 | 22 | 228 | 8.0 | 24.1 | 0.00 | 0.00 | 0.00 | 41 | 1009.5 |
| 20260503204554 | 21 | 198 | 6.4 | 24.1 | 0.00 | 0.00 | 0.00 | 43 | 1009.8 |
| 20260503203053 | 21 | 167 | 14.5 | 33.8 | 0.00 | 0.00 | 0.00 | 43 | 1009.9 |
| 20260503201555 | 21 | 186 | 8.0 | 24.1 | 0.00 | 0.00 | 0.00 | 43 | 1010.3 |
| 20260503200054 | 20 | 360 | 14.5 | 32.2 | 0.00 | 0.00 | 0.00 | 43 | 1010.5 |
| 20260503194606 | 19 | 360 | 6.4 | 32.2 | 0.00 | 0.00 | 0.00 | 45 | 1010.9 |
| 20260503193054 | 20 | 360 | 4.8 | 25.7 | 0.00 | 0.00 | 0.00 | 51 | 1011.0 |
| 20260503191601 | 18 | 360 | 8.0 | 30.6 | 0.00 | 0.00 | 0.00 | 48 | 1011.5 |
| 20260503190053 | 18 | 360 | 11.3 | 43.5 | 0.00 | 0.00 | 0.00 | 45 | 1011.2 |
| 20260503184557 | 18 | 360 | 11.3 | 43.5 | 0.00 | 0.00 | 0.00 | 46 | 1011.3 |
| 20260503183058 | 18 | 360 | 11.3 | 48.3 | 0.00 | 0.00 | 0.00 | 48 | 1011.3 |
| 20260503181605 | 17 | 360 | 11.3 | 32.2 | 0.00 | 0.00 | 0.00 | 50 | 1012.2 |
| 20260503180059 | 17 | 360 | 9.7 | 37.0 | 0.00 | 0.00 | 0.00 | 48 | 1012.5 |
| 20260503174604 | 18 | 360 | 12.9 | 35.4 | 0.00 | 0.00 | 0.00 | 46 | 1012.7 |
| 20260503173054 | 18 | 165 | 8.0 | 30.6 | 0.00 | 0.00 | 0.00 | 48 | 1013.6 |
| 20260503171554 | 17 | 360 | 9.7 | 30.6 | 0.00 | 0.00 | 0.00 | 50 | 1014.5 |
| 20260503170105 | 17 | 205 | 4.8 | 20.9 | 0.00 | 0.00 | 0.00 | 55 | 1014.9 |
| 20260503120104 | 7 | 190 | 3.2 | 9.7 | 0.00 | 0.00 | 0.00 | 83 | 1017.5 |